Location: Bottom School (historical)
(37.9078°N, 89.3593°W)
Time: 13:32:09
(UTC+00:00)

CZ-4B R/B - Pass Details

Date: 08 December 2021
Orbit: 482 x 652 km, 97.9° (Epoch: 19 January)

Event Time Altitude Azimuth Distance (km) Brightness Sun altitude
Rises 12:03:30 0° 8° (N) 2,554 6.1 -11.1°
Reaches altitude 10° 12:05:33 10° 5° (N) 1,674 5.1 -10.8°
Maximum altitude 12:09:06 62° 284° (WNW) 560 2.6 -10.1°
Drops below altitude 10° 12:12:42 10° 204° (SSW) 1,707 5.3 -9.4°
Sets 12:14:49 0° 201° (SSW) 2,609 6.3 -9.1°
